User: anonymous   Login
Location: Muenchen
(48.1800°N, 11.5800°E)
Time: 06:43:26
(UTC+01:00)
Language:

Tiros 1 - Orbit

View from above orbital plane
View from above orbital plane
View from above satellite
View from above satellite

Ground track
Ground track

The orbit data is extracted from the following two-line orbital elements,

1 00029U 60002B   14331.00430736  .00001048  00000-0  19030-3 0  3885
2 00029 048.3776 162.7801 0024872 194.1826 165.8389 14.73454239919244
Epoch (UTC): 27 November 2014 00:06:12
Eccentricity: 0.0024872
inclination: 48.3776°
perigee height: 632 km
apogee height: 667 km
right ascension of ascending node: 162.7801°
argument of perigee: 194.1826°
revolutions per day: 14.73454239
mean anomaly at epoch: 165.8389°
orbit number at epoch: 91924

The dashed part of the orbit path shows where the satellite is in the earth's shadow,  

DLR